Time,TemperatureF,DewpointF,PressureIn,WindDirection,WindDirectionDegrees,WindSpeedMPH,WindSpeedGustMPH,Humidity,HourlyPrecipIn,Conditions,Clouds,dailyrainin,SoftwareType,DateUTC
2013-05-17 00:00:00,68.5,61.4,29.97,WNW,299,1.0,0.0,78,0.00,,,0.00,WeatherTracker,2013-05-17 04:00:00,
2013-05-17 00:01:00,68.5,61.4,29.97,WNW,299,1.0,0.0,78,0.00,,,0.00,WeatherTracker,2013-05-17 04:01:00,
2013-05-17 00:06:00,68.5,61.4,29.97,WNW,299,0.0,0.0,78,0.00,,,0.00,WeatherTracker,2013-05-17 04:06:00,
2013-05-17 00:07:00,68.5,61.4,29.97,WNW,299,0.0,0.0,78,0.00,,,0.00,WeatherTracker,2013-05-17 04:07:00,
2013-05-17 00:08:00,68.5,61.4,29.97,WNW,299,0.0,0.0,78,0.00,,,0.00,WeatherTracker,2013-05-17 04:08:00,
2013-05-17 00:11:00,68.4,61.3,29.97,WNW,299,0.0,0.0,78,0.00,,,0.00,WeatherTracker,2013-05-17 04:11:00,
2013-05-17 00:13:00,68.4,61.3,29.98,WNW,299,1.0,0.0,78,0.00,,,0.00,WeatherTracker,2013-05-17 04:13:00,
2013-05-17 00:14:00,68.4,60.9,29.98,WNW,299,0.0,0.0,77,0.00,,,0.00,WeatherTracker,2013-05-17 04:14:00,
2013-05-17 00:16:00,68.4,60.9,29.98,WNW,299,0.0,0.0,77,0.00,,,0.00,WeatherTracker,2013-05-17 04:16:00,
2013-05-17 00:17:00,68.4,60.9,29.98,WNW,299,1.0,0.0,77,0.00,,,0.00,WeatherTracker,2013-05-17 04:17:00,
2013-05-17 00:18:00,68.4,60.9,29.98,WNW,299,0.0,0.0,77,0.00,,,0.00,WeatherTracker,2013-05-17 04:18:00,
2013-05-17 00:19:00,68.4,60.9,29.98,WNW,299,0.0,0.0,77,0.00,,,0.00,WeatherTracker,2013-05-17 04:19:00,
2013-05-17 00:21:00,68.5,61.0,29.98,WNW,299,0.0,0.0,77,0.00,,,0.00,WeatherTracker,2013-05-17 04:21:00,
2013-05-17 00:22:00,68.4,60.9,29.98,WNW,299,1.0,0.0,77,0.00,,,0.00,WeatherTracker,2013-05-17 04:22:00,
2013-05-17 00:24:00,68.5,60.6,29.98,WNW,299,0.0,0.0,76,0.00,,,0.00,WeatherTracker,2013-05-17 04:24:00,
2013-05-17 00:25:00,68.5,60.6,29.98,WNW,299,0.0,0.0,76,0.00,,,0.00,WeatherTracker,2013-05-17 04:25:00,
2013-05-17 00:26:00,68.5,61.0,29.98,WNW,299,0.0,0.0,77,0.00,,,0.00,WeatherTracker,2013-05-17 04:26:00,
2013-05-17 00:28:00,68.5,60.6,29.98,WNW,299,0.0,0.0,76,0.00,,,0.00,WeatherTracker,2013-05-17 04:28:00,
2013-05-17 00:30:00,68.5,61.0,29.98,WNW,299,0.0,0.0,77,0.00,,,0.00,WeatherTracker,2013-05-17 04:30:00,
2013-05-17 00:31:00,68.5,61.0,29.98,WNW,299,0.0,0.0,77,0.00,,,0.00,WeatherTracker,2013-05-17 04:31:00,
2013-05-17 00:32:00,68.5,61.0,29.98,WNW,299,0.0,0.0,77,0.00,,,0.00,WeatherTracker,2013-05-17 04:32:00,
2013-05-17 00:34:00,68.5,60.6,29.98,WNW,299,1.0,0.0,76,0.00,,,0.00,WeatherTracker,2013-05-17 04:34:00,
2013-05-17 00:36:00,68.6,61.1,29.98,WNW,299,0.0,0.0,77,0.00,,,0.00,WeatherTracker,2013-05-17 04:36:00,
2013-05-17 00:37:00,68.6,60.7,29.98,WNW,299,0.0,0.0,76,0.00,,,0.00,WeatherTracker,2013-05-17 04:37:00,
2013-05-17 00:39:00,68.4,60.5,29.98,WNW,299,0.0,0.0,76,0.00,,,0.00,WeatherTracker,2013-05-17 04:39:00,
2013-05-17 00:40:00,68.4,60.9,29.98,WNW,299,0.0,0.0,77,0.00,,,0.00,WeatherTracker,2013-05-17 04:40:00,
2013-05-17 00:41:00,68.3,60.8,29.98,WNW,299,0.0,0.0,77,0.00,,,0.00,WeatherTracker,2013-05-17 04:41:00,
2013-05-17 00:42:00,68.3,60.8,29.98,WNW,299,0.0,0.0,77,0.00,,,0.00,WeatherTracker,2013-05-17 04:42:00,
2013-05-17 00:43:00,68.2,60.7,29.98,WNW,299,0.0,0.0,77,0.00,,,0.00,WeatherTracker,2013-05-17 04:43:00,
2013-05-17 00:44:00,68.2,60.7,29.98,WNW,299,0.0,0.0,77,0.00,,,0.00,WeatherTracker,2013-05-17 04:44:00,
2013-05-17 00:45:00,68.2,60.7,29.98,WNW,299,0.0,0.0,77,0.00,,,0.00,WeatherTracker,2013-05-17 04:45:00,
2013-05-17 00:47:00,68.2,60.3,29.98,WNW,299,0.0,0.0,76,0.00,,,0.00,WeatherTracker,2013-05-17 04:47:00,
2013-05-17 00:49:00,68.2,60.3,29.98,WNW,299,0.0,0.0,76,0.00,,,0.00,WeatherTracker,2013-05-17 04:49:00,
2013-05-17 00:50:00,68.2,60.3,29.98,WNW,299,0.0,0.0,76,0.00,,,0.00,WeatherTracker,2013-05-17 04:50:00,
2013-05-17 00:53:00,68.0,60.5,29.98,WNW,299,0.0,0.0,77,0.00,,,0.00,WeatherTracker,2013-05-17 04:53:00,
2013-05-17 00:55:00,68.0,60.5,29.98,WNW,299,0.0,0.0,77,0.00,,,0.00,WeatherTracker,2013-05-17 04:55:00,
2013-05-17 00:59:00,68.1,60.2,29.98,WNW,299,1.0,0.0,76,0.00,,,0.00,WeatherTracker,2013-05-17 04:59:00,
2013-05-17 01:00:00,68.1,60.2,29.98,WNW,299,0.0,0.0,76,0.00,,,0.00,WeatherTracker,2013-05-17 05:00:00,
2013-05-17 01:05:00,67.8,60.3,29.99,North,5,0.0,0.0,77,0.00,,,0.00,WeatherTracker,2013-05-17 05:05:00,
2013-05-17 01:06:00,67.7,60.6,29.99,North,5,0.0,0.0,78,0.00,,,0.00,WeatherTracker,2013-05-17 05:06:00,
2013-05-17 01:10:00,67.6,60.5,29.99,WNW,301,0.0,0.0,78,0.00,,,0.00,WeatherTracker,2013-05-17 05:10:00,
2013-05-17 01:11:00,67.6,60.5,29.99,WNW,301,0.0,0.0,78,0.00,,,0.00,WeatherTracker,2013-05-17 05:11:00,
2013-05-17 01:16:00,68.1,60.2,29.99,WNW,301,0.0,0.0,76,0.00,,,0.00,WeatherTracker,2013-05-17 05:16:00,
2013-05-17 01:17:00,68.1,60.2,29.99,WNW,301,0.0,0.0,76,0.00,,,0.00,WeatherTracker,2013-05-17 05:17:00,
2013-05-17 01:21:00,68.0,60.5,29.98,WNW,301,0.0,0.0,77,0.00,,,0.00,WeatherTracker,2013-05-17 05:21:00,
2013-05-17 01:22:00,67.9,60.4,29.98,WNW,300,0.0,0.0,77,0.00,,,0.00,WeatherTracker,2013-05-17 05:22:00,
2013-05-17 01:26:00,67.4,60.7,29.98,WNW,301,0.0,0.0,79,0.00,,,0.00,WeatherTracker,2013-05-17 05:26:00,
2013-05-17 01:27:00,67.4,60.7,29.98,WNW,301,0.0,0.0,79,0.00,,,0.00,WeatherTracker,2013-05-17 05:27:00,
2013-05-17 01:32:00,67.2,60.5,29.98,WNW,301,0.0,0.0,79,0.00,,,0.00,WeatherTracker,2013-05-17 05:32:00,
2013-05-17 01:33:00,67.2,60.8,29.98,WNW,301,0.0,0.0,80,0.00,,,0.00,WeatherTracker,2013-05-17 05:33:00,
2013-05-17 01:37:00,67.3,60.2,29.98,WNW,301,0.0,0.0,78,0.00,,,0.00,WeatherTracker,2013-05-17 05:37:00,
2013-05-17 01:38:00,67.4,60.3,29.98,WNW,301,0.0,0.0,78,0.00,,,0.00,WeatherTracker,2013-05-17 05:38:00,
2013-05-17 01:42:00,67.2,60.5,29.98,WNW,301,0.0,0.0,79,0.00,,,0.00,WeatherTracker,2013-05-17 05:42:00,
2013-05-17 01:43:00,67.1,60.4,29.98,WNW,301,0.0,0.0,79,0.00,,,0.00,WeatherTracker,2013-05-17 05:43:00,
2013-05-17 01:47:00,66.9,60.5,29.98,WNW,301,0.0,0.0,80,0.00,,,0.00,WeatherTracker,2013-05-17 05:47:00,
2013-05-17 01:48:00,66.8,60.4,29.98,WNW,301,0.0,0.0,80,0.00,,,0.00,WeatherTracker,2013-05-17 05:48:00,
2013-05-17 01:49:00,66.9,60.5,29.98,WNW,301,0.0,0.0,80,0.00,,,0.00,WeatherTracker,2013-05-17 05:49:00,
2013-05-17 01:50:00,66.8,60.8,29.98,WNW,301,0.0,0.0,81,0.00,,,0.00,WeatherTracker,2013-05-17 05:50:00,
2013-05-17 01:53:00,66.7,60.3,29.98,WNW,301,0.0,0.0,80,0.00,,,0.00,WeatherTracker,2013-05-17 05:53:00,
2013-05-17 01:54:00,66.7,60.3,29.98,WNW,301,0.0,0.0,80,0.00,,,0.00,WeatherTracker,2013-05-17 05:54:00,
2013-05-17 01:56:00,66.6,60.6,29.98,WNW,301,0.0,0.0,81,0.00,,,0.00,WeatherTracker,2013-05-17 05:56:00,
2013-05-17 01:59:00,66.3,60.6,29.98,WNW,301,0.0,0.0,82,0.00,,,0.00,WeatherTracker,2013-05-17 05:59:00,
2013-05-17 02:00:00,66.2,60.5,29.98,WNW,301,0.0,0.0,82,0.00,,,0.00,WeatherTracker,2013-05-17 06:00:00,
2013-05-17 02:01:00,66.1,60.8,29.98,WNW,301,0.0,0.0,83,0.00,,,0.00,WeatherTracker,2013-05-17 06:01:00,
2013-05-17 02:04:00,65.7,60.4,29.98,WNW,301,0.0,0.0,83,0.00,,,0.00,WeatherTracker,2013-05-17 06:04:00,
2013-05-17 02:05:00,65.6,60.3,29.98,WNW,301,0.0,0.0,83,0.00,,,0.00,WeatherTracker,2013-05-17 06:05:00,
2013-05-17 02:07:00,65.4,60.4,29.98,WNW,301,0.0,0.0,84,0.00,,,0.00,WeatherTracker,2013-05-17 06:07:00,
2013-05-17 02:09:00,65.3,60.3,29.98,WNW,301,0.0,0.0,84,0.00,,,0.00,WeatherTracker,2013-05-17 06:09:00,
2013-05-17 02:10:00,65.2,60.2,29.98,WNW,301,0.0,0.0,84,0.00,,,0.00,WeatherTracker,2013-05-17 06:10:00,
2013-05-17 02:11:00,65.2,60.2,29.98,WNW,301,0.0,0.0,84,0.00,,,0.00,WeatherTracker,2013-05-17 06:11:00,
2013-05-17 02:12:00,65.1,60.1,29.98,WNW,301,0.0,0.0,84,0.00,,,0.00,WeatherTracker,2013-05-17 06:12:00,
2013-05-17 02:15:00,64.9,59.9,29.98,WNW,301,0.0,0.0,84,0.00,,,0.00,WeatherTracker,2013-05-17 06:15:00,
2013-05-17 02:16:00,64.9,59.9,29.98,WNW,301,0.0,0.0,84,0.00,,,0.00,WeatherTracker,2013-05-17 06:16:00,
2013-05-17 02:18:00,64.8,60.2,29.98,WNW,301,0.0,0.0,85,0.00,,,0.00,WeatherTracker,2013-05-17 06:18:00,
2013-05-17 02:21:00,64.7,60.1,29.98,WNW,301,0.0,0.0,85,0.00,,,0.00,WeatherTracker,2013-05-17 06:21:00,
2013-05-17 02:22:00,64.7,60.1,29.98,WNW,301,0.0,0.0,85,0.00,,,0.00,WeatherTracker,2013-05-17 06:22:00,
2013-05-17 02:23:00,64.6,60.0,29.98,WNW,301,0.0,0.0,85,0.00,,,0.00,WeatherTracker,2013-05-17 06:23:00,
2013-05-17 02:24:00,64.6,60.0,29.98,WNW,301,0.0,0.0,85,0.00,,,0.00,WeatherTracker,2013-05-17 06:24:00,
2013-05-17 02:26:00,64.5,59.9,29.98,WNW,301,0.0,0.0,85,0.00,,,0.00,WeatherTracker,2013-05-17 06:26:00,
2013-05-17 02:27:00,64.5,59.9,29.98,WNW,301,0.0,0.0,85,0.00,,,0.00,WeatherTracker,2013-05-17 06:27:00,
2013-05-17 02:29:00,64.4,59.8,29.98,WNW,301,0.0,0.0,85,0.00,,,0.00,WeatherTracker,2013-05-17 06:29:00,
2013-05-17 02:31:00,64.3,60.0,29.98,WNW,301,0.0,0.0,86,0.00,,,0.00,WeatherTracker,2013-05-17 06:31:00,
2013-05-17 02:32:00,64.2,59.9,29.98,WNW,301,0.0,0.0,86,0.00,,,0.00,WeatherTracker,2013-05-17 06:32:00,
2013-05-17 02:33:00,64.1,59.8,29.98,WNW,301,0.0,0.0,86,0.00,,,0.00,WeatherTracker,2013-05-17 06:33:00,
2013-05-17 02:35:00,64.0,59.7,29.98,WNW,301,0.0,0.0,86,0.00,,,0.00,WeatherTracker,2013-05-17 06:35:00,
2013-05-17 02:36:00,64.0,59.7,29.98,WNW,301,0.0,0.0,86,0.00,,,0.00,WeatherTracker,2013-05-17 06:36:00,
2013-05-17 02:38:00,63.9,59.6,29.98,WNW,301,0.0,0.0,86,0.00,,,0.00,WeatherTracker,2013-05-17 06:38:00,
2013-05-17 02:41:00,63.7,59.8,29.98,WNW,301,0.0,0.0,87,0.00,,,0.00,WeatherTracker,2013-05-17 06:41:00,
2013-05-17 02:43:00,63.6,59.7,29.98,WNW,301,0.0,0.0,87,0.00,,,0.00,WeatherTracker,2013-05-17 06:43:00,
2013-05-17 02:45:00,63.5,59.6,29.98,WNW,301,0.0,0.0,87,0.00,,,0.00,WeatherTracker,2013-05-17 06:45:00,
2013-05-17 02:46:00,63.4,59.5,29.98,WNW,301,0.0,0.0,87,0.00,,,0.00,WeatherTracker,2013-05-17 06:46:00,
2013-05-17 02:48:00,63.4,59.5,29.98,WNW,301,0.0,0.0,87,0.00,,,0.00,WeatherTracker,2013-05-17 06:48:00,
2013-05-17 02:50:00,63.2,59.3,29.98,WNW,301,0.0,0.0,87,0.00,,,0.00,WeatherTracker,2013-05-17 06:50:00,
2013-05-17 02:51:00,63.1,59.5,29.98,WNW,301,0.0,0.0,88,0.00,,,0.00,WeatherTracker,2013-05-17 06:51:00,
2013-05-17 02:52:00,63.1,59.5,29.98,WNW,301,0.0,0.0,88,0.00,,,0.00,WeatherTracker,2013-05-17 06:52:00,
2013-05-17 02:53:00,63.1,59.5,29.98,WNW,301,0.0,0.0,88,0.00,,,0.00,WeatherTracker,2013-05-17 06:53:00,
2013-05-17 02:56:00,63.0,59.4,29.98,WNW,301,0.0,0.0,88,0.00,,,0.00,WeatherTracker,2013-05-17 06:56:00,
2013-05-17 02:57:00,62.9,59.3,29.98,WNW,301,0.0,0.0,88,0.00,,,0.00,WeatherTracker,2013-05-17 06:57:00,
2013-05-17 02:59:00,62.9,59.3,29.98,WNW,301,0.0,0.0,88,0.00,,,0.00,WeatherTracker,2013-05-17 06:59:00,
2013-05-17 03:01:00,62.7,59.1,29.98,WNW,301,0.0,0.0,88,0.00,,,0.00,WeatherTracker,2013-05-17 07:01:00,
2013-05-17 03:03:00,62.7,59.4,29.98,WNW,301,1.0,0.0,89,0.00,,,0.00,WeatherTracker,2013-05-17 07:03:00,
2013-05-17 03:05:00,62.7,59.4,29.98,North,10,0.0,0.0,89,0.00,,,0.00,WeatherTracker,2013-05-17 07:05:00,
2013-05-17 03:07:00,62.5,59.2,29.98,North,10,0.0,0.0,89,0.00,,,0.00,WeatherTracker,2013-05-17 07:07:00,
2013-05-17 03:08:00,62.4,59.1,29.98,North,10,0.0,0.0,89,0.00,,,0.00,WeatherTracker,2013-05-17 07:08:00,
2013-05-17 03:09:00,62.4,59.1,29.98,North,10,0.0,0.0,89,0.00,,,0.00,WeatherTracker,2013-05-17 07:09:00,
2013-05-17 03:10:00,62.3,59.3,29.98,North,10,0.0,0.0,90,0.00,,,0.00,WeatherTracker,2013-05-17 07:10:00,
2013-05-17 03:13:00,62.2,59.2,29.98,North,10,0.0,0.0,90,0.00,,,0.00,WeatherTracker,2013-05-17 07:13:00,
2013-05-17 03:14:00,62.2,59.2,29.98,North,10,0.0,0.0,90,0.00,,,0.00,WeatherTracker,2013-05-17 07:14:00,
2013-05-17 03:15:00,62.2,59.2,29.98,North,10,0.0,0.0,90,0.00,,,0.00,WeatherTracker,2013-05-17 07:15:00,
2013-05-17 03:16:00,62.2,59.2,29.98,North,10,0.0,0.0,90,0.00,,,0.00,WeatherTracker,2013-05-17 07:16:00,
2013-05-17 03:18:00,62.2,59.5,29.98,North,10,0.0,0.0,91,0.00,,,0.00,WeatherTracker,2013-05-17 07:18:00,
2013-05-17 03:19:00,62.1,59.4,29.98,North,10,0.0,0.0,91,0.00,,,0.00,WeatherTracker,2013-05-17 07:19:00,
2013-05-17 03:20:00,62.1,59.4,29.98,North,10,0.0,0.0,91,0.00,,,0.00,WeatherTracker,2013-05-17 07:20:00,
2013-05-17 03:21:00,62.1,59.4,29.98,North,10,0.0,0.0,91,0.00,,,0.00,WeatherTracker,2013-05-17 07:21:00,
2013-05-17 03:22:00,62.1,59.4,29.99,North,10,0.0,0.0,91,0.00,,,0.00,WeatherTracker,2013-05-17 07:22:00,
2013-05-17 03:24:00,62.0,59.3,29.99,North,10,0.0,0.0,91,0.00,,,0.00,WeatherTracker,2013-05-17 07:24:00,
2013-05-17 03:25:00,62.0,59.3,29.99,North,10,0.0,0.0,91,0.00,,,0.00,WeatherTracker,2013-05-17 07:25:00,
2013-05-17 03:26:00,62.0,59.3,29.99,North,10,0.0,0.0,91,0.00,,,0.00,WeatherTracker,2013-05-17 07:26:00,
2013-05-17 03:28:00,61.9,59.2,29.99,North,10,0.0,0.0,91,0.00,,,0.00,WeatherTracker,2013-05-17 07:28:00,
2013-05-17 03:30:00,61.8,58.8,29.99,North,10,0.0,0.0,90,0.00,,,0.00,WeatherTracker,2013-05-17 07:30:00,
2013-05-17 03:31:00,61.7,59.0,29.99,North,10,0.0,0.0,91,0.00,,,0.00,WeatherTracker,2013-05-17 07:31:00,
2013-05-17 03:32:00,61.7,59.0,29.99,North,10,0.0,0.0,91,0.00,,,0.00,WeatherTracker,2013-05-17 07:32:00,
2013-05-17 03:33:00,61.7,59.0,29.99,North,10,0.0,0.0,91,0.00,,,0.00,WeatherTracker,2013-05-17 07:33:00,
2013-05-17 03:35:00,61.7,59.0,29.99,North,10,0.0,0.0,91,0.00,,,0.00,WeatherTracker,2013-05-17 07:35:00,
2013-05-17 03:36:00,61.6,58.9,29.99,North,10,0.0,0.0,91,0.00,,,0.00,WeatherTracker,2013-05-17 07:36:00,
2013-05-17 03:37:00,61.6,58.9,29.98,North,10,0.0,0.0,91,0.00,,,0.00,WeatherTracker,2013-05-17 07:37:00,
2013-05-17 03:38:00,61.6,58.9,29.98,North,10,0.0,0.0,91,0.00,,,0.00,WeatherTracker,2013-05-17 07:38:00,
2013-05-17 03:41:00,61.5,58.8,29.99,North,10,0.0,0.0,91,0.00,,,0.00,WeatherTracker,2013-05-17 07:41:00,
2013-05-17 03:43:00,61.4,58.7,29.99,North,10,0.0,0.0,91,0.00,,,0.00,WeatherTracker,2013-05-17 07:43:00,
2013-05-17 03:46:00,61.3,58.6,29.99,North,10,0.0,0.0,91,0.00,,,0.00,WeatherTracker,2013-05-17 07:46:00,
2013-05-17 03:48:00,61.2,58.5,29.99,North,10,0.0,0.0,91,0.00,,,0.00,WeatherTracker,2013-05-17 07:48:00,
2013-05-17 03:49:00,61.2,58.5,29.99,North,10,0.0,0.0,91,0.00,,,0.00,WeatherTracker,2013-05-17 07:49:00,
2013-05-17 03:52:00,61.1,58.8,29.99,North,10,0.0,0.0,92,0.00,,,0.00,WeatherTracker,2013-05-17 07:52:00,
2013-05-17 03:53:00,61.1,58.8,29.99,North,10,0.0,0.0,92,0.00,,,0.00,WeatherTracker,2013-05-17 07:53:00,
2013-05-17 03:55:00,61.0,58.7,29.99,North,10,0.0,0.0,92,0.00,,,0.00,WeatherTracker,2013-05-17 07:55:00,
2013-05-17 03:57:00,60.9,58.6,29.99,North,10,0.0,0.0,92,0.00,,,0.00,WeatherTracker,2013-05-17 07:57:00,
2013-05-17 03:58:00,60.9,58.6,29.99,North,10,0.0,0.0,92,0.00,,,0.00,WeatherTracker,2013-05-17 07:58:00,
2013-05-17 03:59:00,60.8,58.5,29.99,North,10,0.0,0.0,92,0.00,,,0.00,WeatherTracker,2013-05-17 07:59:00,
2013-05-17 04:00:00,60.8,58.5,29.99,North,10,0.0,0.0,92,0.00,,,0.00,WeatherTracker,2013-05-17 08:00:00,
2013-05-17 04:03:00,60.6,58.3,29.99,North,10,0.0,0.0,92,0.00,,,0.00,WeatherTracker,2013-05-17 08:03:00,
2013-05-17 04:04:00,60.6,58.3,29.99,North,10,0.0,0.0,92,0.00,,,0.00,WeatherTracker,2013-05-17 08:04:00,
2013-05-17 04:05:00,60.5,58.2,30.00,North,10,0.0,0.0,92,0.00,,,0.00,WeatherTracker,2013-05-17 08:05:00,
2013-05-17 04:06:00,60.5,58.2,30.00,North,10,0.0,0.0,92,0.00,,,0.00,WeatherTracker,2013-05-17 08:06:00,
2013-05-17 04:09:00,60.4,58.4,29.99,North,10,0.0,0.0,93,0.00,,,0.00,WeatherTracker,2013-05-17 08:09:00,
2013-05-17 04:10:00,60.4,58.4,29.99,North,10,0.0,0.0,93,0.00,,,0.00,WeatherTracker,2013-05-17 08:10:00,
2013-05-17 04:11:00,60.4,58.4,29.99,North,10,0.0,0.0,93,0.00,,,0.00,WeatherTracker,2013-05-17 08:11:00,
2013-05-17 04:13:00,60.4,58.4,29.99,North,10,0.0,0.0,93,0.00,,,0.00,WeatherTracker,2013-05-17 08:13:00,
2013-05-17 04:15:00,60.5,58.5,29.99,North,10,0.0,0.0,93,0.00,,,0.00,WeatherTracker,2013-05-17 08:15:00,
2013-05-17 04:17:00,60.5,58.5,29.99,North,10,0.0,0.0,93,0.00,,,0.00,WeatherTracker,2013-05-17 08:17:00,
2013-05-17 04:19:00,60.5,58.5,29.99,North,10,0.0,0.0,93,0.00,,,0.00,WeatherTracker,2013-05-17 08:19:00,
2013-05-17 04:20:00,60.5,58.5,30.00,North,10,0.0,0.0,93,0.00,,,0.00,WeatherTracker,2013-05-17 08:20:00,
2013-05-17 04:21:00,60.5,58.5,30.00,North,10,0.0,0.0,93,0.00,,,0.00,WeatherTracker,2013-05-17 08:21:00,
2013-05-17 04:22:00,60.5,58.5,30.00,North,10,0.0,0.0,93,0.00,,,0.00,WeatherTracker,2013-05-17 08:22:00,
2013-05-17 04:25:00,60.6,58.6,30.00,North,10,0.0,0.0,93,0.00,,,0.00,WeatherTracker,2013-05-17 08:25:00,
2013-05-17 04:26:00,60.6,58.6,30.00,North,10,0.0,0.0,93,0.00,,,0.00,WeatherTracker,2013-05-17 08:26:00,
2013-05-17 04:27:00,60.6,58.6,30.00,North,10,0.0,0.0,93,0.00,,,0.00,WeatherTracker,2013-05-17 08:27:00,
2013-05-17 04:29:00,60.5,58.5,30.00,North,10,0.0,0.0,93,0.00,,,0.00,WeatherTracker,2013-05-17 08:29:00,
2013-05-17 04:30:00,60.5,58.5,30.00,North,10,0.0,0.0,93,0.00,,,0.00,WeatherTracker,2013-05-17 08:30:00,
2013-05-17 04:31:00,60.5,58.5,30.00,North,10,0.0,0.0,93,0.00,,,0.00,WeatherTracker,2013-05-17 08:31:00,
2013-05-17 04:32:00,60.5,58.5,30.00,North,10,0.0,0.0,93,0.00,,,0.00,WeatherTracker,2013-05-17 08:32:00,
2013-05-17 04:33:00,60.5,58.5,30.00,North,10,0.0,0.0,93,0.00,,,0.00,WeatherTracker,2013-05-17 08:33:00,
2013-05-17 04:34:00,60.5,58.5,30.00,North,10,0.0,0.0,93,0.00,,,0.00,WeatherTracker,2013-05-17 08:34:00,
2013-05-17 04:36:00,60.5,58.5,30.01,North,10,0.0,0.0,93,0.00,,,0.00,WeatherTracker,2013-05-17 08:36:00,
2013-05-17 04:38:00,60.5,58.5,30.01,North,10,0.0,0.0,93,0.00,,,0.00,WeatherTracker,2013-05-17 08:38:00,
2013-05-17 04:39:00,60.4,58.4,30.01,North,10,0.0,0.0,93,0.00,,,0.00,WeatherTracker,2013-05-17 08:39:00,
2013-05-17 04:41:00,60.4,58.4,30.01,North,10,0.0,0.0,93,0.00,,,0.00,WeatherTracker,2013-05-17 08:41:00,
2013-05-17 04:42:00,60.4,58.4,30.01,North,10,0.0,0.0,93,0.00,,,0.00,WeatherTracker,2013-05-17 08:42:00,
2013-05-17 04:44:00,60.4,58.4,30.01,North,10,0.0,0.0,93,0.00,,,0.00,WeatherTracker,2013-05-17 08:44:00,
2013-05-17 04:47:00,60.4,58.4,30.01,North,10,0.0,0.0,93,0.00,,,0.00,WeatherTracker,2013-05-17 08:47:00,
2013-05-17 04:48:00,60.4,58.4,30.01,North,10,0.0,0.0,93,0.00,,,0.00,WeatherTracker,2013-05-17 08:48:00,
2013-05-17 04:49:00,60.4,58.4,30.01,North,10,0.0,0.0,93,0.00,,,0.00,WeatherTracker,2013-05-17 08:49:00,
2013-05-17 04:50:00,60.5,58.5,30.01,North,10,0.0,0.0,93,0.00,,,0.00,WeatherTracker,2013-05-17 08:50:00,
2013-05-17 04:53:00,60.5,58.5,30.01,North,10,0.0,0.0,93,0.00,,,0.00,WeatherTracker,2013-05-17 08:53:00,
2013-05-17 04:54:00,60.6,58.6,30.01,North,10,0.0,0.0,93,0.00,,,0.00,WeatherTracker,2013-05-17 08:54:00,
2013-05-17 04:55:00,60.6,58.6,30.01,North,10,0.0,0.0,93,0.00,,,0.00,WeatherTracker,2013-05-17 08:55:00,
2013-05-17 04:56:00,60.7,58.7,30.02,North,10,0.0,0.0,93,0.00,,,0.00,WeatherTracker,2013-05-17 08:56:00,
2013-05-17 04:58:00,60.7,58.7,30.02,North,10,0.0,0.0,93,0.00,,,0.00,WeatherTracker,2013-05-17 08:58:00,
2013-05-17 04:59:00,60.8,58.8,30.02,North,10,0.0,0.0,93,0.00,,,0.00,WeatherTracker,2013-05-17 08:59:00,
2013-05-17 05:00:00,60.8,58.8,30.02,North,10,0.0,0.0,93,0.00,,,0.00,WeatherTracker,2013-05-17 09:00:00,
2013-05-17 05:01:00,60.8,58.8,30.02,North,10,0.0,0.0,93,0.00,,,0.00,WeatherTracker,2013-05-17 09:01:00,
2013-05-17 05:04:00,60.9,58.9,30.02,North,10,0.0,0.0,93,0.00,,,0.00,WeatherTracker,2013-05-17 09:04:00,
2013-05-17 05:05:00,60.9,58.9,30.02,North,10,0.0,0.0,93,0.00,,,0.00,WeatherTracker,2013-05-17 09:05:00,
2013-05-17 05:09:00,61.0,59.0,30.02,North,10,0.0,0.0,93,0.00,,,0.00,WeatherTracker,2013-05-17 09:09:00,
2013-05-17 05:10:00,61.0,59.0,30.02,North,10,0.0,0.0,93,0.00,,,0.00,WeatherTracker,2013-05-17 09:10:00,
2013-05-17 05:11:00,61.1,59.1,30.02,North,10,0.0,0.0,93,0.00,,,0.00,WeatherTracker,2013-05-17 09:11:00,
2013-05-17 05:12:00,61.1,59.1,30.02,North,10,0.0,0.0,93,0.00,,,0.00,WeatherTracker,2013-05-17 09:12:00,
2013-05-17 05:15:00,61.1,59.1,30.02,North,10,0.0,0.0,93,0.00,,,0.00,WeatherTracker,2013-05-17 09:15:00,
2013-05-17 05:16:00,61.1,59.1,30.02,North,10,0.0,0.0,93,0.00,,,0.00,WeatherTracker,2013-05-17 09:16:00,
2013-05-17 05:17:00,61.1,59.1,30.02,North,10,0.0,0.0,93,0.00,,,0.00,WeatherTracker,2013-05-17 09:17:00,
2013-05-17 05:18:00,61.1,59.1,30.02,North,10,0.0,0.0,93,0.00,,,0.00,WeatherTracker,2013-05-17 09:18:00,
2013-05-17 05:20:00,61.0,59.0,30.02,North,10,0.0,0.0,93,0.00,,,0.00,WeatherTracker,2013-05-17 09:20:00,
2013-05-17 05:21:00,61.0,58.7,30.02,North,10,0.0,0.0,92,0.00,,,0.00,WeatherTracker,2013-05-17 09:21:00,
2013-05-17 05:22:00,61.0,58.7,30.02,North,10,0.0,0.0,92,0.00,,,0.00,WeatherTracker,2013-05-17 09:22:00,
2013-05-17 05:23:00,61.0,58.7,30.02,North,10,0.0,0.0,92,0.00,,,0.00,WeatherTracker,2013-05-17 09:23:00,
2013-05-17 05:25:00,61.0,59.0,30.02,North,10,0.0,0.0,93,0.00,,,0.00,WeatherTracker,2013-05-17 09:25:00,
2013-05-17 05:27:00,61.0,59.0,30.02,North,10,0.0,0.0,93,0.00,,,0.00,WeatherTracker,2013-05-17 09:27:00,
2013-05-17 05:28:00,61.0,58.7,30.03,North,10,0.0,0.0,92,0.00,,,0.00,WeatherTracker,2013-05-17 09:28:00,
2013-05-17 05:31:00,61.0,59.0,30.03,North,10,0.0,0.0,93,0.00,,,0.00,WeatherTracker,2013-05-17 09:31:00,
2013-05-17 05:33:00,60.9,58.9,30.03,North,10,0.0,0.0,93,0.00,,,0.00,WeatherTracker,2013-05-17 09:33:00,
2013-05-17 05:34:00,60.9,58.9,30.03,North,10,0.0,0.0,93,0.00,,,0.00,WeatherTracker,2013-05-17 09:34:00,
2013-05-17 05:35:00,60.9,58.9,30.03,North,10,0.0,0.0,93,0.00,,,0.00,WeatherTracker,2013-05-17 09:35:00,
2013-05-17 05:36:00,60.9,58.9,30.03,North,10,0.0,0.0,93,0.00,,,0.00,WeatherTracker,2013-05-17 09:36:00,
2013-05-17 05:38:00,60.9,58.9,30.03,North,10,0.0,0.0,93,0.00,,,0.00,WeatherTracker,2013-05-17 09:38:00,
2013-05-17 05:39:00,60.9,58.9,30.03,North,10,0.0,0.0,93,0.00,,,0.00,WeatherTracker,2013-05-17 09:39:00,
2013-05-17 05:40:00,61.0,59.0,30.03,North,10,0.0,0.0,93,0.00,,,0.00,WeatherTracker,2013-05-17 09:40:00,
2013-05-17 05:42:00,61.0,59.0,30.03,North,10,0.0,0.0,93,0.00,,,0.00,WeatherTracker,2013-05-17 09:42:00,
2013-05-17 05:44:00,61.0,59.0,30.03,North,10,0.0,0.0,93,0.00,,,0.00,WeatherTracker,2013-05-17 09:44:00,
2013-05-17 05:45:00,60.9,58.9,30.03,North,10,0.0,0.0,93,0.00,,,0.00,WeatherTracker,2013-05-17 09:45:00,
2013-05-17 05:48:00,60.9,58.9,30.04,North,10,0.0,0.0,93,0.00,,,0.00,WeatherTracker,2013-05-17 09:48:00,
2013-05-17 05:50:00,60.9,58.9,30.04,North,10,0.0,0.0,93,0.00,,,0.00,WeatherTracker,2013-05-17 09:50:00,
2013-05-17 05:51:00,60.9,58.9,30.04,North,10,0.0,0.0,93,0.00,,,0.00,WeatherTracker,2013-05-17 09:51:00,
2013-05-17 05:53:00,60.9,58.9,30.04,North,10,0.0,0.0,93,0.00,,,0.00,WeatherTracker,2013-05-17 09:53:00,
2013-05-17 05:55:00,60.9,58.9,30.04,North,10,0.0,0.0,93,0.00,,,0.00,WeatherTracker,2013-05-17 09:55:00,
2013-05-17 05:56:00,60.9,58.9,30.04,North,10,0.0,0.0,93,0.00,,,0.00,WeatherTracker,2013-05-17 09:56:00,
2013-05-17 05:57:00,60.9,58.9,30.04,North,10,0.0,0.0,93,0.00,,,0.00,WeatherTracker,2013-05-17 09:57:00,
2013-05-17 05:58:00,60.9,58.9,30.04,North,10,0.0,0.0,93,0.00,,,0.00,WeatherTracker,2013-05-17 09:58:00,
2013-05-17 06:00:00,60.9,58.9,30.04,North,10,0.0,0.0,93,0.00,,,0.00,WeatherTracker,2013-05-17 10:00:00,
2013-05-17 06:01:00,60.9,58.9,30.04,North,10,0.0,0.0,93,0.00,,,0.00,WeatherTracker,2013-05-17 10:01:00,
2013-05-17 06:02:00,60.9,58.9,30.04,North,10,0.0,0.0,93,0.00,,,0.00,WeatherTracker,2013-05-17 10:02:00,
2013-05-17 06:03:00,60.9,58.9,30.04,North,10,0.0,0.0,93,0.00,,,0.00,WeatherTracker,2013-05-17 10:03:00,
2013-05-17 06:05:00,60.9,58.9,30.04,North,10,0.0,0.0,93,0.00,,,0.00,WeatherTracker,2013-05-17 10:05:00,
2013-05-17 06:07:00,60.9,58.9,30.04,North,10,0.0,0.0,93,0.00,,,0.00,WeatherTracker,2013-05-17 10:07:00,
2013-05-17 06:09:00,60.9,58.9,30.04,North,10,0.0,0.0,93,0.00,,,0.00,WeatherTracker,2013-05-17 10:09:00,
2013-05-17 06:11:00,60.8,58.8,30.04,North,10,0.0,0.0,93,0.00,,,0.00,WeatherTracker,2013-05-17 10:11:00,
2013-05-17 06:13:00,60.8,58.8,30.04,North,10,0.0,0.0,93,0.00,,,0.00,WeatherTracker,2013-05-17 10:13:00,
2013-05-17 06:15:00,60.9,58.9,30.04,North,10,0.0,0.0,93,0.00,,,0.00,WeatherTracker,2013-05-17 10:15:00,
2013-05-17 06:16:00,60.9,58.9,30.04,North,10,0.0,0.0,93,0.00,,,0.00,WeatherTracker,2013-05-17 10:16:00,
2013-05-17 06:18:00,60.9,58.9,30.04,North,10,0.0,0.0,93,0.00,,,0.00,WeatherTracker,2013-05-17 10:18:00,
2013-05-17 06:20:00,60.9,58.9,30.04,North,10,0.0,0.0,93,0.00,,,0.00,WeatherTracker,2013-05-17 10:20:00,
2013-05-17 06:22:00,61.0,59.0,30.04,North,10,0.0,0.0,93,0.00,,,0.00,WeatherTracker,2013-05-17 10:22:00,
2013-05-17 06:23:00,61.0,59.0,30.04,North,10,0.0,0.0,93,0.00,,,0.00,WeatherTracker,2013-05-17 10:23:00,
2013-05-17 06:24:00,61.0,59.0,30.04,North,10,0.0,0.0,93,0.00,,,0.00,WeatherTracker,2013-05-17 10:24:00,
2013-05-17 06:27:00,61.0,59.0,30.04,North,10,0.0,0.0,93,0.00,,,0.00,WeatherTracker,2013-05-17 10:27:00,
2013-05-17 06:28:00,61.0,59.0,30.04,North,10,0.0,0.0,93,0.00,,,0.00,WeatherTracker,2013-05-17 10:28:00,
2013-05-17 06:29:00,61.0,59.0,30.04,North,10,0.0,0.0,93,0.00,,,0.00,WeatherTracker,2013-05-17 10:29:00,
2013-05-17 06:32:00,61.1,59.1,30.04,North,10,0.0,0.0,93,0.00,,,0.00,WeatherTracker,2013-05-17 10:32:00,
2013-05-17 06:34:00,61.1,59.1,30.04,North,10,0.0,0.0,93,0.00,,,0.00,WeatherTracker,2013-05-17 10:34:00,
2013-05-17 06:36:00,61.1,59.1,30.04,North,10,0.0,0.0,93,0.00,,,0.00,WeatherTracker,2013-05-17 10:36:00,
2013-05-17 06:37:00,61.2,59.2,30.05,North,10,0.0,0.0,93,0.00,,,0.00,WeatherTracker,2013-05-17 10:37:00,
2013-05-17 06:39:00,61.1,59.1,30.05,North,10,0.0,0.0,93,0.00,,,0.00,WeatherTracker,2013-05-17 10:39:00,
2013-05-17 06:40:00,61.1,59.1,30.05,North,10,0.0,0.0,93,0.00,,,0.00,WeatherTracker,2013-05-17 10:40:00,
2013-05-17 06:41:00,61.1,59.1,30.05,North,10,0.0,0.0,93,0.00,,,0.00,WeatherTracker,2013-05-17 10:41:00,
2013-05-17 06:44:00,61.1,59.1,30.05,North,10,0.0,0.0,93,0.00,,,0.00,WeatherTracker,2013-05-17 10:44:00,
2013-05-17 06:45:00,61.1,59.1,30.05,North,10,0.0,0.0,93,0.00,,,0.00,WeatherTracker,2013-05-17 10:45:00,
2013-05-17 06:46:00,61.1,59.1,30.05,North,10,0.0,0.0,93,0.00,,,0.00,WeatherTracker,2013-05-17 10:46:00,
2013-05-17 06:49:00,61.2,59.2,30.05,North,10,0.0,0.0,93,0.00,,,0.00,WeatherTracker,2013-05-17 10:49:00,
2013-05-17 06:50:00,61.2,59.2,30.05,North,10,0.0,0.0,93,0.00,,,0.00,WeatherTracker,2013-05-17 10:50:00,
2013-05-17 06:51:00,61.3,59.3,30.05,North,10,0.0,0.0,93,0.00,,,0.00,WeatherTracker,2013-05-17 10:51:00,
2013-05-17 06:52:00,61.3,59.3,30.05,North,10,0.0,0.0,93,0.00,,,0.00,WeatherTracker,2013-05-17 10:52:00,
2013-05-17 06:54:00,61.3,59.3,30.05,North,10,0.0,0.0,93,0.00,,,0.00,WeatherTracker,2013-05-17 10:54:00,
2013-05-17 06:55:00,61.3,59.3,30.05,North,10,0.0,0.0,93,0.00,,,0.00,WeatherTracker,2013-05-17 10:55:00,
2013-05-17 06:56:00,61.3,59.3,30.05,North,10,0.0,0.0,93,0.00,,,0.00,WeatherTracker,2013-05-17 10:56:00,
2013-05-17 06:57:00,61.3,59.3,30.05,North,10,0.0,0.0,93,0.00,,,0.00,WeatherTracker,2013-05-17 10:57:00,
2013-05-17 06:59:00,61.3,59.3,30.05,North,10,0.0,0.0,93,0.00,,,0.00,WeatherTracker,2013-05-17 10:59:00,
2013-05-17 07:01:00,61.3,59.3,30.05,North,10,0.0,0.0,93,0.00,,,0.00,WeatherTracker,2013-05-17 11:01:00,
2013-05-17 07:02:00,61.3,59.3,30.05,North,10,0.0,0.0,93,0.00,,,0.00,WeatherTracker,2013-05-17 11:02:00,
2013-05-17 07:04:00,61.3,59.3,30.05,North,10,0.0,0.0,93,0.00,,,0.00,WeatherTracker,2013-05-17 11:04:00,
2013-05-17 07:06:00,61.2,59.2,30.05,North,10,0.0,0.0,93,0.00,,,0.00,WeatherTracker,2013-05-17 11:06:00,
2013-05-17 07:07:00,61.3,59.3,30.05,West,281,0.0,0.0,93,0.00,,,0.00,WeatherTracker,2013-05-17 11:07:00,
2013-05-17 07:08:00,61.3,59.3,30.05,West,281,0.0,0.0,93,0.00,,,0.00,WeatherTracker,2013-05-17 11:08:00,
2013-05-17 07:10:00,61.3,59.3,30.05,West,281,0.0,0.0,93,0.00,,,0.00,WeatherTracker,2013-05-17 11:10:00,
2013-05-17 07:12:00,61.5,59.5,30.06,West,281,0.0,0.0,93,0.00,,,0.00,WeatherTracker,2013-05-17 11:12:00,
2013-05-17 07:13:00,61.5,59.5,30.05,West,281,0.0,0.0,93,0.00,,,0.00,WeatherTracker,2013-05-17 11:13:00,
2013-05-17 07:14:00,61.6,59.6,30.06,West,281,0.0,0.0,93,0.00,,,0.00,WeatherTracker,2013-05-17 11:14:00,
2013-05-17 07:15:00,61.7,59.7,30.05,West,281,0.0,0.0,93,0.00,,,0.00,WeatherTracker,2013-05-17 11:15:00,
2013-05-17 07:17:00,61.8,59.4,30.06,West,281,0.0,0.0,92,0.00,,,0.00,WeatherTracker,2013-05-17 11:17:00,
2013-05-17 07:18:00,61.8,59.4,30.06,West,281,0.0,0.0,92,0.00,,,0.00,WeatherTracker,2013-05-17 11:18:00,
2013-05-17 07:20:00,61.8,59.4,30.06,West,281,0.0,0.0,92,0.00,,,0.00,WeatherTracker,2013-05-17 11:20:00,
2013-05-17 07:21:00,61.8,59.4,30.06,West,281,0.0,0.0,92,0.00,,,0.00,WeatherTracker,2013-05-17 11:21:00,
2013-05-17 07:23:00,61.9,59.5,30.06,West,281,0.0,0.0,92,0.00,,,0.00,WeatherTracker,2013-05-17 11:23:00,
2013-05-17 07:24:00,61.9,59.5,30.06,West,281,0.0,0.0,92,0.00,,,0.00,WeatherTracker,2013-05-17 11:24:00,
2013-05-17 07:25:00,61.8,59.4,30.06,West,281,0.0,0.0,92,0.00,,,0.00,WeatherTracker,2013-05-17 11:25:00,
2013-05-17 07:27:00,61.9,59.5,30.06,West,281,0.0,0.0,92,0.00,,,0.00,WeatherTracker,2013-05-17 11:27:00,
2013-05-17 07:29:00,61.9,59.5,30.06,West,281,0.0,0.0,92,0.00,,,0.00,WeatherTracker,2013-05-17 11:29:00,
2013-05-17 07:30:00,61.9,59.5,30.06,West,281,0.0,0.0,92,0.00,,,0.00,WeatherTracker,2013-05-17 11:30:00,
2013-05-17 07:31:00,61.9,59.5,30.06,West,281,0.0,0.0,92,0.00,,,0.00,WeatherTracker,2013-05-17 11:31:00,
2013-05-17 07:32:00,62.0,59.6,30.06,West,281,0.0,0.0,92,0.00,,,0.00,WeatherTracker,2013-05-17 11:32:00,
2013-05-17 07:35:00,62.1,59.7,30.06,West,281,0.0,0.0,92,0.00,,,0.00,WeatherTracker,2013-05-17 11:35:00,
2013-05-17 07:36:00,62.1,59.7,30.06,West,281,0.0,0.0,92,0.00,,,0.00,WeatherTracker,2013-05-17 11:36:00,
2013-05-17 07:37:00,62.1,59.7,30.06,West,281,0.0,0.0,92,0.00,,,0.00,WeatherTracker,2013-05-17 11:37:00,
2013-05-17 07:40:00,62.3,59.9,30.07,West,281,0.0,0.0,92,0.00,,,0.00,WeatherTracker,2013-05-17 11:40:00,
2013-05-17 07:41:00,62.3,59.9,30.07,West,281,0.0,0.0,92,0.00,,,0.00,WeatherTracker,2013-05-17 11:41:00,
2013-05-17 07:42:00,62.3,59.9,30.07,West,281,0.0,0.0,92,0.00,,,0.00,WeatherTracker,2013-05-17 11:42:00,
2013-05-17 07:43:00,62.4,60.0,30.07,West,281,0.0,0.0,92,0.00,,,0.00,WeatherTracker,2013-05-17 11:43:00,
2013-05-17 07:47:00,62.6,60.2,30.07,West,281,0.0,0.0,92,0.00,,,0.00,WeatherTracker,2013-05-17 11:47:00,
2013-05-17 07:48:00,62.6,60.2,30.07,West,281,0.0,0.0,92,0.00,,,0.00,WeatherTracker,2013-05-17 11:48:00,
2013-05-17 07:52:00,62.8,60.4,30.07,West,281,0.0,0.0,92,0.00,,,0.00,WeatherTracker,2013-05-17 11:52:00,
2013-05-17 07:53:00,62.9,60.5,30.07,West,281,0.0,0.0,92,0.00,,,0.00,WeatherTracker,2013-05-17 11:53:00,
2013-05-17 07:54:00,63.0,60.6,30.07,West,281,0.0,0.0,92,0.00,,,0.00,WeatherTracker,2013-05-17 11:54:00,
2013-05-17 07:58:00,63.2,60.5,30.07,West,281,0.0,0.0,91,0.00,,,0.00,WeatherTracker,2013-05-17 11:58:00,
2013-05-17 07:59:00,63.3,60.6,30.07,West,281,0.0,0.0,91,0.00,,,0.00,WeatherTracker,2013-05-17 11:59:00,
2013-05-17 08:03:00,63.9,60.9,30.07,West,281,0.0,0.0,90,0.00,,,0.00,WeatherTracker,2013-05-17 12:03:00,
2013-05-17 08:04:00,64.0,61.0,30.07,West,281,0.0,0.0,90,0.00,,,0.00,WeatherTracker,2013-05-17 12:04:00,
2013-05-17 08:05:00,64.1,61.1,30.07,West,281,0.0,0.0,90,0.00,,,0.00,WeatherTracker,2013-05-17 12:05:00,
2013-05-17 08:09:00,64.7,61.4,30.07,West,281,0.0,0.0,89,0.00,,,0.00,WeatherTracker,2013-05-17 12:09:00,
2013-05-17 08:10:00,64.8,61.5,30.07,West,281,0.0,0.0,89,0.00,,,0.00,WeatherTracker,2013-05-17 12:10:00,
2013-05-17 08:11:00,64.8,61.5,30.07,West,281,0.0,0.0,89,0.00,,,0.00,WeatherTracker,2013-05-17 12:11:00,
2013-05-17 08:14:00,64.8,61.5,30.07,West,281,0.0,0.0,89,0.00,,,0.00,WeatherTracker,2013-05-17 12:14:00,
2013-05-17 08:15:00,64.8,61.5,30.07,West,281,0.0,0.0,89,0.00,,,0.00,WeatherTracker,2013-05-17 12:15:00,
2013-05-17 08:16:00,64.9,61.3,30.07,West,281,0.0,0.0,88,0.00,,,0.00,WeatherTracker,2013-05-17 12:16:00,
2013-05-17 08:19:00,65.0,61.4,30.07,West,281,0.0,0.0,88,0.00,,,0.00,WeatherTracker,2013-05-17 12:19:00,
2013-05-17 08:21:00,65.2,61.6,30.07,West,281,0.0,0.0,88,0.00,,,0.00,WeatherTracker,2013-05-17 12:21:00,
2013-05-17 08:22:00,65.2,61.6,30.07,West,281,0.0,0.0,88,0.00,,,0.00,WeatherTracker,2013-05-17 12:22:00,
2013-05-17 08:25:00,65.3,61.6,30.07,West,281,0.0,0.0,88,0.00,,,0.00,WeatherTracker,2013-05-17 12:25:00,
2013-05-17 08:26:00,65.3,61.3,30.07,West,281,0.0,0.0,87,0.00,,,0.00,WeatherTracker,2013-05-17 12:26:00,
2013-05-17 08:27:00,65.4,61.7,30.07,West,281,0.0,0.0,88,0.00,,,0.00,WeatherTracker,2013-05-17 12:27:00,
2013-05-17 08:30:00,65.7,62.0,30.07,West,281,0.0,0.0,88,0.00,,,0.00,WeatherTracker,2013-05-17 12:30:00,
2013-05-17 08:31:00,65.8,62.1,30.07,West,281,0.0,0.0,88,0.00,,,0.00,WeatherTracker,2013-05-17 12:31:00,
2013-05-17 08:32:00,65.8,62.1,30.07,West,281,0.0,0.0,88,0.00,,,0.00,WeatherTracker,2013-05-17 12:32:00,
2013-05-17 08:34:00,66.1,62.1,30.07,West,281,0.0,0.0,87,0.00,,,0.00,WeatherTracker,2013-05-17 12:34:00,
2013-05-17 08:35:00,66.2,62.2,30.07,West,281,0.0,0.0,87,0.00,,,0.00,WeatherTracker,2013-05-17 12:35:00,
2013-05-17 08:36:00,66.3,62.3,30.07,West,281,0.0,0.0,87,0.00,,,0.00,WeatherTracker,2013-05-17 12:36:00,
2013-05-17 08:37:00,66.5,62.2,30.07,West,281,0.0,0.0,86,0.00,,,0.00,WeatherTracker,2013-05-17 12:37:00,
2013-05-17 08:41:00,67.7,62.3,30.07,West,281,0.0,0.0,83,0.00,,,0.00,WeatherTracker,2013-05-17 12:41:00,
2013-05-17 08:42:00,68.0,62.6,30.07,West,281,0.0,0.0,83,0.00,,,0.00,WeatherTracker,2013-05-17 12:42:00,
2013-05-17 08:46:00,69.4,63.3,30.07,West,281,0.0,0.0,81,0.00,,,0.00,WeatherTracker,2013-05-17 12:46:00,
2013-05-17 08:47:00,69.7,63.2,30.07,West,281,0.0,0.0,80,0.00,,,0.00,WeatherTracker,2013-05-17 12:47:00,
2013-05-17 08:49:00,70.1,63.3,30.08,West,281,0.0,0.0,79,0.00,,,0.00,WeatherTracker,2013-05-17 12:49:00,
2013-05-17 08:51:00,70.2,63.4,30.08,West,281,0.0,0.0,79,0.00,,,0.00,WeatherTracker,2013-05-17 12:51:00,
2013-05-17 08:52:00,70.3,63.5,30.08,West,281,0.0,0.0,79,0.00,,,0.00,WeatherTracker,2013-05-17 12:52:00,
2013-05-17 08:53:00,70.3,63.1,30.08,West,281,0.0,0.0,78,0.00,,,0.00,WeatherTracker,2013-05-17 12:53:00,
2013-05-17 08:54:00,70.3,63.1,30.08,West,281,0.0,0.0,78,0.00,,,0.00,WeatherTracker,2013-05-17 12:54:00,
2013-05-17 08:56:00,70.3,63.1,30.08,West,281,0.0,0.0,78,0.00,,,0.00,WeatherTracker,2013-05-17 12:56:00,
2013-05-17 08:57:00,70.3,63.1,30.08,West,281,0.0,0.0,78,0.00,,,0.00,WeatherTracker,2013-05-17 12:57:00,
2013-05-17 08:58:00,70.3,63.1,30.08,West,281,0.0,0.0,78,0.00,,,0.00,WeatherTracker,2013-05-17 12:58:00,
2013-05-17 09:00:00,70.1,62.9,30.08,West,281,0.0,0.0,78,0.00,,,0.00,WeatherTracker,2013-05-17 13:00:00,
2013-05-17 09:02:00,70.0,62.8,30.08,West,281,0.0,0.0,78,0.00,,,0.00,WeatherTracker,2013-05-17 13:02:00,
2013-05-17 09:04:00,71.0,63.4,30.08,West,281,0.0,0.0,77,0.00,,,0.00,WeatherTracker,2013-05-17 13:04:00,
2013-05-17 09:05:00,71.4,63.8,30.08,West,281,0.0,0.0,77,0.00,,,0.00,WeatherTracker,2013-05-17 13:05:00,
2013-05-17 09:07:00,71.4,63.8,30.08,West,281,0.0,0.0,77,0.00,,,0.00,WeatherTracker,2013-05-17 13:07:00,
2013-05-17 09:08:00,71.4,63.8,30.08,West,281,0.0,0.0,77,0.00,,,0.00,WeatherTracker,2013-05-17 13:08:00,
2013-05-17 09:10:00,71.4,63.8,30.08,West,281,0.0,0.0,77,0.00,,,0.00,WeatherTracker,2013-05-17 13:10:00,
2013-05-17 09:12:00,72.1,63.7,30.08,West,281,0.0,0.0,75,0.00,,,0.00,WeatherTracker,2013-05-17 13:12:00,
2013-05-17 09:13:00,72.4,64.0,30.08,West,281,0.0,0.0,75,0.00,,,0.00,WeatherTracker,2013-05-17 13:13:00,
2013-05-17 09:15:00,73.1,64.3,30.08,West,281,0.0,0.0,74,0.00,,,0.00,WeatherTracker,2013-05-17 13:15:00,
2013-05-17 09:17:00,73.5,64.3,30.08,West,281,0.0,0.0,73,0.00,,,0.00,WeatherTracker,2013-05-17 13:17:00,
2013-05-17 09:18:00,73.5,63.9,30.08,West,281,0.0,0.0,72,0.00,,,0.00,WeatherTracker,2013-05-17 13:18:00,
2013-05-17 09:20:00,73.9,63.9,30.08,West,281,0.0,0.0,71,0.00,,,0.00,WeatherTracker,2013-05-17 13:20:00,
2013-05-17 09:22:00,74.0,64.4,30.08,West,281,0.0,0.0,72,0.00,,,0.00,WeatherTracker,2013-05-17 13:22:00,
2013-05-17 09:23:00,74.1,64.5,30.08,West,281,0.0,0.0,72,0.00,,,0.00,WeatherTracker,2013-05-17 13:23:00,
2013-05-17 09:24:00,74.1,63.3,30.08,West,281,0.0,0.0,69,0.00,,,0.00,WeatherTracker,2013-05-17 13:24:00,
2013-05-17 09:26:00,74.6,63.7,30.08,SSE,148,1.0,0.0,69,0.00,,,0.00,WeatherTracker,2013-05-17 13:26:00,
2013-05-17 09:28:00,74.3,63.5,30.08,SSE,148,0.0,0.0,69,0.00,,,0.00,WeatherTracker,2013-05-17 13:28:00,
2013-05-17 09:29:00,74.3,62.6,30.08,SSE,148,0.0,0.0,67,0.00,,,0.00,WeatherTracker,2013-05-17 13:29:00,
2013-05-17 09:31:00,74.8,63.5,30.08,SSE,148,0.0,0.0,68,0.00,,,0.00,WeatherTracker,2013-05-17 13:31:00,
2013-05-17 09:33:00,75.3,62.3,30.08,SSE,148,0.0,0.0,64,0.00,,,0.00,WeatherTracker,2013-05-17 13:33:00,
2013-05-17 09:34:00,75.3,62.7,30.08,SSE,148,0.0,0.0,65,0.00,,,0.00,WeatherTracker,2013-05-17 13:34:00,
2013-05-17 09:35:00,75.6,63.0,30.08,SSE,148,0.0,0.0,65,0.00,,,0.00,WeatherTracker,2013-05-17 13:35:00,
2013-05-17 09:36:00,75.8,63.2,30.08,SSE,148,0.0,0.0,65,0.00,,,0.00,WeatherTracker,2013-05-17 13:36:00,
2013-05-17 09:37:00,76.0,63.4,30.08,SSE,148,0.0,0.0,65,0.00,,,0.00,WeatherTracker,2013-05-17 13:37:00,
2013-05-17 09:38:00,76.2,63.1,30.08,SSE,148,1.0,0.0,64,0.00,,,0.00,WeatherTracker,2013-05-17 13:38:00,
2013-05-17 09:39:00,76.3,63.2,30.08,SSE,148,1.0,0.0,64,0.00,,,0.00,WeatherTracker,2013-05-17 13:39:00,
2013-05-17 09:40:00,76.0,62.5,30.08,ENE,74,3.0,0.0,63,0.00,,,0.00,WeatherTracker,2013-05-17 13:40:00,
2013-05-17 09:42:00,75.5,61.1,30.08,ENE,70,0.0,0.0,61,0.00,,,0.00,WeatherTracker,2013-05-17 13:42:00,
2013-05-17 09:43:00,75.6,61.2,30.08,ENE,70,1.0,0.0,61,0.00,,,0.00,WeatherTracker,2013-05-17 13:43:00,
2013-05-17 09:44:00,76.0,61.6,30.08,ENE,69,1.0,0.0,61,0.00,,,0.00,WeatherTracker,2013-05-17 13:44:00,
2013-05-17 09:45:00,76.0,61.6,30.08,ENE,70,0.0,0.0,61,0.00,,,0.00,WeatherTracker,2013-05-17 13:45:00,
2013-05-17 09:47:00,76.1,62.1,30.08,NE,55,2.0,0.0,62,0.00,,,0.00,WeatherTracker,2013-05-17 13:47:00,
2013-05-17 09:48:00,75.8,62.3,30.08,NE,55,1.0,0.0,63,0.00,,,0.00,WeatherTracker,2013-05-17 13:48:00,
2013-05-17 09:50:00,75.4,61.0,30.08,NE,55,0.0,0.0,61,0.00,,,0.00,WeatherTracker,2013-05-17 13:50:00,